Regional Weather Roundup
Issued by NWS

Home | Current Version | Previous Version | Graphics & Text | Print | Product List | Glossary On
Versions: 1 2 3 4 5 6 7 8 9 10 11 12 13 14 15 16 17 18 19 20 21 22 23 24 25 26 27 28 29 30 31 32 33 34 35 36 37 38 39 40 41 42 43 44 45 46 47 48 49 50
000
ASUS45 KCYS 011910
RWRWY

WYOMING REGIONAL WEATHER ROUNDUP
NATIONAL WEATHER SERVICE CHEYENNE WY
100 PM MDT MON SEP 01 2014

NOTE:  "FAIR" INDICATES FEW OR NO CLOUDS BELOW 12,000 FEET
WITH NO SIGNIFICANT WEATHER AND/OR OBSTRUCTIONS TO VISIBILITY.

WYZ001-012000-
YELLOWSTONE NATIONAL PARK

CITY           SKY/WX    TMP DP  RH WIND       PRES   REMARKS
LK YELLOWSTONE   N/A     52  31  44 W12G17    30.19R
W YELLOWSTONE  NOT AVBL

$$
WYZ002>013-054>058-071-098>099-012000-
NORTHERN WYOMING

CITY           SKY/WX    TMP DP  RH WIND       PRES   REMARKS
JACKSON        PTSUNNY   61  34  36 S8        30.14R
CODY             N/A    N/A N/A N/A MISG        N/A
GREYBULL       SUNNY     67  43  41 N9        29.99F
WORLAND        SUNNY     66  45  46 E5        30.00F
SHERIDAN       HVY RAIN  51  46  83 S9        30.01F
BUFFALO          N/A     53  42  66 MISG      30.05R
GILLETTE       PTSUNNY   61  45  55 N10       30.02S
HULETT         CLOUDY    61  43  51 MISG      30.01
NEWCASTLE      LGT RAIN  54  48  82 NW15      30.04

$$
WYZ014>020-022>026-101>103-012000-
CENTRAL WYOMING

CITY           SKY/WX    TMP DP  RH WIND       PRES   REMARKS
BIG PINEY      SUNNY     62  31  31 VRB7      30.15F
PINEDALE       CLEAR     61  28  29 NW22      30.16S
DUBOIS         MOCLDY    59  27  29 NW14G29   30.11S
LANDER         SUNNY     68  33  27 VRB3      30.01F
RIVERTON       SUNNY     68  36  30 MISG      30.03F
CASPER         MOSUNNY   68  37  32 NW9G22    30.00F
DOUGLAS        MOSUNNY   73  41  31 W18G24    29.99F

$$
WYZ021-027>030-104>119-012000-
SOUTHERN WYOMING

CITY           SKY/WX    TMP DP  RH WIND       PRES   REMARKS
EVANSTON       MOSUNNY   66  33  29 W20G28    30.20S
KEMMERER       CLEAR     61  32  33 W21G26    30.20S
FORT BRIDGER   FAIR      69  33  27 W23G31    30.20S
ROCK SPRINGS   SUNNY     68  29  23 W23G32    30.15R
DIXON          FAIR      69  36  29 SW16G24   30.15F
RAWLINS        MOSUNNY   68  28  22 SW30G39   30.09F
SARATOGA       FAIR      64  32  29 W21G33    30.13F
LARAMIE        CLOUDY    62  32  32 W17       30.11F
CHEYENNE       CLOUDY    67  29  24 VRB7      30.06F
TORRINGTON     MOSUNNY   74  41  30 W10       29.94F
PINE BLUFFS    FAIR      72  43  35 SW15      30.03F

$$


USA.gov is the U.S. government's official web portal to all federal, state and local government web resources and services.